DLH758 EDDF-VOMM

Flight info

Callsign DLH758
Flight time N/A
Altitude 31000
Route CINDY2D CINDY Z74 HAREM DCT ASLEP DCT TAKUT DCT DINKU L603 BESNI/N0448F350 L605 MIQ DCT ALUTU DCT BIBAG Q104 AKIMA/N0448F370 DCT STEIN DCT TEGRI DCT LUGEB DCT UDROS UM859 KARDE UL851 TBN UM11 REBLO P130 DOGAM/N0454F390 P130 MAMED B449 RANAH L750 ZB G202 RK P628 IBANI Q23 RINTO RINTO2F
Aircraft A343/H-SDE2E3FGHIJ3J5M1P2RWXYZ/LB1D1

Departure

Time N/A
Airport Frankfurt Main Airport (EDDF)

Arrival

Time 2026-04-28 15:14
Airport Chennai International Airport (VOMM)
Time Latitude Longitude Altitude Speed Heading
2026-04-28 14:03 19.68999 77.83117 39006 ft 460 kts 168°
2026-04-28 14:03 19.65870 77.83845 39003 ft 460 kts 168°
2026-04-28 14:04 19.59611 77.85299 39000 ft 460 kts 168°
2026-04-28 14:04 19.53349 77.86753 39001 ft 461 kts 168°
2026-04-28 14:05 19.47088 77.88206 38996 ft 461 kts 168°
2026-04-28 14:05 19.40821 77.89659 38998 ft 461 kts 168°
2026-04-28 14:06 19.34595 77.91102 39003 ft 461 kts 168°
2026-04-28 14:06 19.28323 77.92555 39001 ft 461 kts 168°
2026-04-28 14:07 19.22055 77.94017 38997 ft 461 kts 168°
2026-04-28 14:07 19.15798 77.95479 38998 ft 461 kts 168°
2026-04-28 14:08 19.09534 77.96941 39007 ft 461 kts 168°
2026-04-28 14:08 19.04290 77.98163 38998 ft 461 kts 168°
2026-04-28 14:09 18.97016 77.99857 39002 ft 461 kts 168°
2026-04-28 14:09 18.90759 78.01323 38997 ft 460 kts 167°
2026-04-28 14:10 18.84505 78.02794 39002 ft 460 kts 167°
2026-04-28 14:10 18.78249 78.04263 38999 ft 461 kts 168°
2026-04-28 14:11 18.71992 78.05731 38997 ft 461 kts 168°
2026-04-28 14:11 18.65733 78.07197 38999 ft 461 kts 168°
2026-04-28 14:12 18.59473 78.08662 39000 ft 461 kts 168°
2026-04-28 14:12 18.53211 78.10126 39001 ft 461 kts 168°
2026-04-28 14:13 18.48003 78.11344 38997 ft 461 kts 168°
2026-04-28 14:13 18.41731 78.12809 38997 ft 462 kts 168°
2026-04-28 14:14 18.35454 78.14274 39006 ft 462 kts 168°
2026-04-28 14:14 18.29181 78.15737 39004 ft 462 kts 168°
2026-04-28 14:15 18.22907 78.17199 39001 ft 462 kts 168°
2026-04-28 14:15 18.16641 78.18673 38999 ft 461 kts 166°
2026-04-28 14:16 18.10729 78.21250 39003 ft 461 kts 148°
2026-04-28 14:16 18.05705 78.25422 38999 ft 461 kts 139°
2026-04-28 14:17 18.00951 78.29961 39000 ft 462 kts 137°
2026-04-28 14:17 17.96234 78.34555 38999 ft 462 kts 137°
2026-04-28 14:18 17.91492 78.39127 39004 ft 462 kts 137°
2026-04-28 14:18 17.86741 78.43673 39000 ft 462 kts 138°
2026-04-28 14:19 17.82010 78.48188 38996 ft 463 kts 138°
2026-04-28 14:19 17.77247 78.52731 38998 ft 463 kts 138°
2026-04-28 14:20 17.72484 78.57271 38996 ft 463 kts 138°
2026-04-28 14:20 17.67714 78.61816 38998 ft 463 kts 138°
2026-04-28 14:21 17.62946 78.66355 39004 ft 463 kts 138°
2026-04-28 14:21 17.58178 78.70889 39004 ft 463 kts 138°
2026-04-28 14:22 17.53411 78.75420 38998 ft 463 kts 138°
2026-04-28 14:22 17.48644 78.79947 38999 ft 462 kts 138°
2026-04-28 14:23 17.43886 78.84479 38996 ft 462 kts 137°
2026-04-28 14:23 17.39143 78.89015 38999 ft 462 kts 137°
2026-04-28 14:24 17.34401 78.93549 39002 ft 461 kts 137°
2026-04-28 14:24 17.29691 78.98047 38996 ft 461 kts 137°
2026-04-28 14:25 17.24949 79.02571 38999 ft 461 kts 137°
2026-04-28 14:25 17.20204 79.07094 39001 ft 461 kts 138°
2026-04-28 14:26 17.15460 79.11612 39009 ft 461 kts 138°
2026-04-28 14:26 17.10718 79.16125 38998 ft 461 kts 138°
2026-04-28 14:27 17.05977 79.20634 38999 ft 461 kts 138°
2026-04-28 14:27 17.01235 79.25141 39003 ft 461 kts 138°
2026-04-28 14:28 16.96105 79.29109 39003 ft 460 kts 153°
2026-04-28 14:28 16.90118 79.31376 38998 ft 458 kts 165°
2026-04-28 14:29 16.83920 79.32979 38997 ft 459 kts 167°
2026-04-28 14:29 16.77693 79.34482 38998 ft 459 kts 167°
2026-04-28 14:30 16.71473 79.36006 38999 ft 459 kts 167°
2026-04-28 14:30 16.65261 79.37555 38997 ft 459 kts 167°
2026-04-28 14:31 16.59050 79.39112 38999 ft 459 kts 167°
2026-04-28 14:31 16.52838 79.40669 38997 ft 459 kts 167°
2026-04-28 14:32 16.46626 79.42224 38996 ft 459 kts 167°
2026-04-28 14:32 16.40414 79.43776 39001 ft 459 kts 167°
2026-04-28 14:33 16.34239 79.45319 39001 ft 459 kts 167°
2026-04-28 14:33 16.28018 79.46872 39001 ft 460 kts 167°
2026-04-28 14:34 16.18672 79.49203 38996 ft 460 kts 167°
2026-04-28 14:35 16.12450 79.50754 39006 ft 459 kts 167°
2026-04-28 14:35 16.06236 79.52302 39001 ft 459 kts 167°
2026-04-28 14:36 16.00061 79.53991 39003 ft 459 kts 162°
2026-04-28 14:36 15.93980 79.56011 38996 ft 459 kts 162°
2026-04-28 14:37 15.87884 79.57999 39002 ft 459 kts 163°
2026-04-28 14:37 15.81780 79.59966 38998 ft 459 kts 163°
2026-04-28 14:38 15.75678 79.61924 39000 ft 459 kts 163°
2026-04-28 14:38 15.69574 79.63879 38997 ft 459 kts 163°
2026-04-28 14:39 15.63472 79.65832 39006 ft 459 kts 163°
2026-04-28 14:39 15.57373 79.67782 39009 ft 459 kts 163°
2026-04-28 14:40 15.51271 79.69733 38998 ft 459 kts 163°
2026-04-28 14:40 15.45170 79.71682 38997 ft 459 kts 163°
2026-04-28 14:41 15.39073 79.73629 39004 ft 459 kts 163°
2026-04-28 14:41 15.32968 79.75577 39000 ft 459 kts 163°
2026-04-28 14:42 15.26872 79.77521 38996 ft 459 kts 163°
2026-04-28 14:42 15.20813 79.79452 39009 ft 459 kts 163°
2026-04-28 14:43 15.14717 79.81393 39002 ft 458 kts 163°
2026-04-28 14:43 15.08615 79.83335 39000 ft 458 kts 163°
2026-04-28 14:44 15.02520 79.85273 38999 ft 458 kts 163°
2026-04-28 14:44 14.96421 79.87212 38997 ft 459 kts 163°
2026-04-28 14:45 14.90323 79.89149 39003 ft 459 kts 163°
2026-04-28 14:45 14.84224 79.91086 38981 ft 458 kts 163°
2026-04-28 14:45 14.81188 79.92049 38835 ft 452 kts 163°
2026-04-28 14:46 14.78210 79.92994 38743 ft 443 kts 163°
2026-04-28 14:46 14.75275 79.93925 38331 ft 442 kts 163°
2026-04-28 14:46 14.72325 79.94860 37750 ft 445 kts 163°
2026-04-28 14:46 14.69356 79.95801 37177 ft 447 kts 163°
2026-04-28 14:47 14.66375 79.96746 36633 ft 449 kts 163°
2026-04-28 14:47 14.63382 79.97694 36049 ft 452 kts 163°
2026-04-28 14:47 14.60370 79.98648 35424 ft 454 kts 163°
2026-04-28 14:47 14.57337 79.99608 34762 ft 457 kts 163°
2026-04-28 14:48 14.54284 80.00575 34080 ft 460 kts 163°
2026-04-28 14:48 14.51215 80.01546 33384 ft 462 kts 163°
2026-04-28 14:48 14.48134 80.02521 32673 ft 464 kts 163°
2026-04-28 14:48 14.45042 80.03499 31930 ft 466 kts 163°
2026-04-28 14:49 14.41944 80.04478 31328 ft 465 kts 163°
2026-04-28 14:49 14.38868 80.05451 30839 ft 460 kts 163°
2026-04-28 14:49 14.35838 80.06489 30248 ft 458 kts 160°
2026-04-28 14:49 14.32866 80.07650 29712 ft 455 kts 159°
2026-04-28 14:50 14.29921 80.08810 29179 ft 451 kts 159°
2026-04-28 14:50 14.26997 80.09949 28668 ft 448 kts 160°
2026-04-28 14:50 14.24088 80.11073 28136 ft 444 kts 160°
2026-04-28 14:50 14.21201 80.12183 27621 ft 441 kts 160°
2026-04-28 14:51 14.18340 80.13279 27122 ft 437 kts 160°
2026-04-28 14:51 14.15499 80.14366 26622 ft 434 kts 160°
2026-04-28 14:51 14.12680 80.15443 26093 ft 431 kts 160°
2026-04-28 14:51 14.09916 80.16498 25582 ft 428 kts 160°
2026-04-28 14:52 14.07100 80.17572 25073 ft 424 kts 160°
2026-04-28 14:52 14.04380 80.18609 24572 ft 421 kts 160°
2026-04-28 14:52 14.01648 80.19651 24066 ft 417 kts 160°
2026-04-28 14:52 13.98935 80.20685 23564 ft 414 kts 160°
2026-04-28 14:53 13.96243 80.21711 23076 ft 411 kts 160°
2026-04-28 14:53 13.93574 80.22727 22592 ft 407 kts 160°
2026-04-28 14:53 13.90926 80.23736 22096 ft 404 kts 160°
2026-04-28 14:53 13.88302 80.24735 21625 ft 401 kts 160°
2026-04-28 14:54 13.85696 80.25727 21118 ft 398 kts 160°
2026-04-28 14:54 13.83112 80.26710 20633 ft 394 kts 160°
2026-04-28 14:54 13.80550 80.27685 20159 ft 391 kts 160°
2026-04-28 14:54 13.78003 80.28654 19684 ft 388 kts 160°
2026-04-28 14:55 13.75503 80.29605 19512 ft 377 kts 160°
2026-04-28 14:55 13.73081 80.30526 19372 ft 365 kts 160°
2026-04-28 14:55 13.70734 80.31418 19256 ft 355 kts 160°
2026-04-28 14:55 13.68450 80.32286 19096 ft 345 kts 160°
2026-04-28 14:56 13.66221 80.33123 18935 ft 337 kts 161°
2026-04-28 14:56 13.63946 80.33588 18648 ft 332 kts 179°
2026-04-28 14:56 13.61669 80.33310 18352 ft 329 kts 192°
2026-04-28 14:56 13.59447 80.32784 18034 ft 327 kts 194°
2026-04-28 14:57 13.57243 80.32235 17719 ft 325 kts 194°
2026-04-28 14:57 13.55788 80.31874 17513 ft 324 kts 194°
2026-04-28 14:57 13.52866 80.31157 17091 ft 322 kts 194°
2026-04-28 14:57 13.50690 80.30627 16772 ft 320 kts 193°
2026-04-28 14:58 13.48529 80.30104 16466 ft 319 kts 193°
2026-04-28 14:58 13.46378 80.29583 16155 ft 317 kts 193°
2026-04-28 14:58 13.44234 80.29066 15852 ft 316 kts 193°
2026-04-28 14:58 13.42101 80.28551 15543 ft 314 kts 193°
2026-04-28 14:59 13.39976 80.28039 15244 ft 313 kts 193°
2026-04-28 14:59 13.37890 80.27536 14963 ft 311 kts 193°
2026-04-28 14:59 13.35784 80.27028 14670 ft 310 kts 193°
2026-04-28 14:59 13.33691 80.26524 14384 ft 309 kts 193°
2026-04-28 15:00 13.31604 80.26021 14076 ft 307 kts 193°
2026-04-28 15:00 13.29527 80.25521 13793 ft 306 kts 193°
2026-04-28 15:00 13.27459 80.25023 13506 ft 305 kts 193°
2026-04-28 15:00 13.25400 80.24527 13218 ft 303 kts 193°
2026-04-28 15:01 13.23348 80.24032 12916 ft 302 kts 193°
2026-04-28 15:01 13.21307 80.23541 12625 ft 301 kts 193°
2026-04-28 15:01 13.19277 80.23053 12325 ft 299 kts 193°
2026-04-28 15:01 13.17264 80.22568 11903 ft 294 kts 193°
2026-04-28 15:02 13.15280 80.22091 11213 ft 292 kts 193°
2026-04-28 15:02 13.13315 80.21576 10501 ft 290 kts 199°
2026-04-28 15:02 13.11559 80.20571 9937 ft 292 kts 222°
2026-04-28 15:02 13.10367 80.18921 9662 ft 288 kts 245°
2026-04-28 15:03 13.09617 80.17033 9366 ft 285 kts 250°
2026-04-28 15:03 13.09172 80.15767 9154 ft 284 kts 250°
2026-04-28 15:03 13.08510 80.13864 8823 ft 283 kts 250°
2026-04-28 15:03 13.07845 80.11972 8504 ft 281 kts 250°
2026-04-28 15:04 13.07178 80.10089 8170 ft 280 kts 250°
2026-04-28 15:04 13.06512 80.08218 7833 ft 279 kts 250°
2026-04-28 15:04 13.05847 80.06355 7505 ft 277 kts 250°
2026-04-28 15:04 13.05179 80.04505 7185 ft 276 kts 249°
2026-04-28 15:05 13.04483 80.02678 6872 ft 275 kts 249°
2026-04-28 15:05 13.03782 80.00858 6543 ft 273 kts 249°
2026-04-28 15:05 13.03085 79.99047 6231 ft 273 kts 249°
2026-04-28 15:05 13.02393 79.97243 5901 ft 271 kts 249°
2026-04-28 15:06 13.01711 79.95463 5565 ft 264 kts 249°
2026-04-28 15:06 13.01052 79.93742 5236 ft 255 kts 249°
2026-04-28 15:06 13.00414 79.92075 4899 ft 248 kts 249°
2026-04-28 15:06 12.99783 79.90458 4574 ft 240 kts 246°
2026-04-28 15:07 12.98779 79.89149 4263 ft 232 kts 215°
2026-04-28 15:07 12.97318 79.88611 4066 ft 221 kts 182°
2026-04-28 15:07 12.95859 79.88975 3883 ft 217 kts 148°
2026-04-28 15:07 12.94870 79.90090 3704 ft 212 kts 114°
2026-04-28 15:08 12.94460 79.91523 3528 ft 208 kts 101°
2026-04-28 15:08 12.94216 79.92972 3371 ft 204 kts 99°
2026-04-28 15:08 12.94000 79.94386 3240 ft 198 kts 99°
2026-04-28 15:08 12.93795 79.95742 3161 ft 185 kts 99°
2026-04-28 15:09 12.93607 79.96988 3051 ft 168 kts 99°
2026-04-28 15:09 12.93432 79.98151 2936 ft 164 kts 99°
2026-04-28 15:09 12.93260 79.99299 2841 ft 163 kts 99°
2026-04-28 15:09 12.93106 80.00450 2742 ft 163 kts 93°
2026-04-28 15:10 12.93270 80.01576 2628 ft 157 kts 69°
2026-04-28 15:10 12.93677 80.02579 2519 ft 147 kts 67°
2026-04-28 15:10 12.94041 80.03525 2422 ft 141 kts 69°
2026-04-28 15:10 12.94388 80.04463 2271 ft 140 kts 69°
2026-04-28 15:11 12.94734 80.05398 2081 ft 140 kts 69°
2026-04-28 15:11 12.95082 80.06329 1872 ft 140 kts 69°
2026-04-28 15:11 12.95427 80.07255 1695 ft 139 kts 69°
2026-04-28 15:11 12.95766 80.08182 1505 ft 138 kts 69°
2026-04-28 15:12 12.96105 80.09092 1351 ft 139 kts 68°
2026-04-28 15:12 12.96454 80.10026 1156 ft 138 kts 69°
2026-04-28 15:12 12.96786 80.10936 961 ft 138 kts 69°
2026-04-28 15:12 12.97132 80.11861 777 ft 137 kts 68°
2026-04-28 15:13 12.97490 80.12765 584 ft 137 kts 68°
2026-04-28 15:13 12.97824 80.13677 387 ft 136 kts 70°
2026-04-28 15:13 12.98143 80.14572 227 ft 136 kts 69°
2026-04-28 15:13 12.98483 80.15469 82 ft 135 kts 68°
2026-04-28 15:14 12.98794 80.16279 48 ft 99 kts 69°
2026-04-28 15:14 12.98975 80.16768 50 ft 49 kts 69°
2026-04-28 15:14 12.99087 80.17067 51 ft 40 kts 69°
2026-04-28 15:14 12.99105 80.17180 47 ft 8 kts 121°
2026-04-28 15:15 12.99058 80.17209 51 ft 8 kts 155°
2026-04-28 15:15 12.99005 80.17232 51 ft 8 kts 158°
2026-04-28 15:15 12.98951 80.17226 46 ft 8 kts 214°
2026-04-28 15:15 12.98918 80.17163 48 ft 12 kts 248°
2026-04-28 15:16 12.98883 80.17072 49 ft 16 kts 249°
2026-04-28 15:16 12.98839 80.16957 49 ft 19 kts 249°
2026-04-28 15:16 12.98791 80.16825 49 ft 21 kts 249°
2026-04-28 15:16 12.98738 80.16685 49 ft 22 kts 249°
2026-04-28 15:17 12.98682 80.16536 49 ft 23 kts 249°
2026-04-28 15:17 12.98620 80.16395 47 ft 18 kts 222°
2026-04-28 15:17 12.98524 80.16379 51 ft 11 kts 175°
2026-04-28 15:17 12.98453 80.16385 48 ft 8 kts 169°
2026-04-28 15:18 12.98415 80.16397 45 ft 4 kts 160°
2026-04-28 15:18 12.98391 80.16406 48 ft 1 kts 160°
2026-04-28 15:18 12.98384 80.16408 49 ft 0 kts 160°